Location: *
(47.5493°N, 8.8329°E)
Time: 22:31:33
(UTC+00:00)

Daily predictions for brighter satellites

Satellite Brightness Start Highest point End
(mag) Time Altitude Azimuth Time Altitude Azimuth Time Altitude Azimuth
Cosmos 2056 Rocket 4.2 19:52:52 10° SSW 19:58:13 65° WNW 20:03:39 10° NNE
Cosmos 1709 Rocket 4.4 19:53:46 10° NNW 19:59:57 71° W 20:06:12 10° S
Cosmos 1420 Rocket 4.3 19:55:19 10° SSW 20:00:35 75° WNW 20:05:54 10° NNE
CARTOSAT-1 3.8 19:57:52 10° SSE 20:02:05 57° ENE 20:06:20 10° N
ARIANE 5 R/B 4.5 19:59:33 10° ESE 20:02:32 18° ENE 20:05:30 10° NNE
Cosmos 1975 Rocket 3.9 19:59:19 10° SSW 20:03:40 56° WNW 20:08:02 10° N
Cosmos 1741 Rocket 4.3 19:58:57 10° NNW 20:04:13 57° ENE 20:09:28 10° SE
SL-24 R/B 4.3 20:00:13 10° SSE 20:04:35 77° ENE 20:09:40 10° N
ATLAS 5 CENTAUR R/B 3.9 19:52:02 10° NW 20:05:38 54° WSW 20:09:44 10° SSE
Tiangong 3.7 20:06:44 10° SSW 20:07:07 10° SSW 20:07:30 10° SSW
Cosmos 2315 Rocket 4.3 20:02:07 10° SSW 20:08:27 77° W 20:14:45 10° N
SPOT 3 Rocket 3.7 20:06:27 10° SSE 20:11:35 65° ENE 20:16:46 10° N
Cosmos 2074 Rocket 4.2 20:06:36 10° N 20:12:49 59° ENE 20:18:56 10° SSE
Ariane Rocket 3.1 20:08:04 10° SSE 20:13:10 83° WSW 20:18:18 10° NNW
Cosmos 1544 Rocket 4.0 20:15:18 10° NNW 20:19:36 63° W 20:23:53 10° S
Lacrosse 5 rocket 3.9 20:20:09 10° WSW 20:21:12 11° WSW 20:22:15 10° SW
Cosmos 1656 3.8 20:16:51 10° NNW 20:22:19 72° WSW 20:27:49 10° SSE
GEOS 3 Rocket 4.4 20:18:08 10° SSE 20:23:00 44° WSW 20:27:54 10° NW
Nadezhda 1 Rocket 4.4 20:19:36 10° SSE 20:25:15 42° E 20:30:55 10° NNE
ATLAS 2AS CENTAUR R/B 3.6 20:22:16 10° NW 20:28:47 41° WSW 20:34:54 10° S
USA 234 4.5 20:23:06 10° ENE 20:29:08 41° N 20:35:11 10° WNW
MetOp-B 4.4 20:25:09 10° S 20:30:29 70° WSW 20:35:51 10° NNW
Cosmos 1850 Rocket 4.0 20:25:59 10° NNW 20:31:13 85° WSW 20:36:20 10° SSE
SL-16 R/B 4.4 20:29:32 10° N 20:33:04 16° NE 20:36:34 10° ENE
Cosmos 1980 Rocket 3.0 20:28:39 10° NNW 20:34:02 41° NE 20:39:07 11° ESE
Cosmos 1697 Rocket 2.8 20:28:49 10° NNW 20:34:28 73° ENE 20:39:32 13° SE
Cosmos 2344 4.4 20:27:56 10° NW 20:36:36 71° NE 20:48:13 11° SE
SL-8 R/B 3.9 20:32:28 10° WNW 20:37:12 58° SSW 20:41:22 13° SE
Cosmos 2369 4.3 20:32:00 10° NNW 20:37:34 48° NE 20:42:35 13° SE
Cosmos 1331 Rocket 4.1 20:32:56 10° S 20:38:07 58° ESE 20:43:20 10° NNE
COSMOS 2406 3.6 20:38:03 10° S 20:43:27 43° ESE 20:48:52 10° NE
Spot 2 Rocket 3.5 20:38:47 11° SSE 20:43:39 81° ENE 20:48:48 10° NNW
Cosmos 2154 Rocket 4.0 20:38:13 10° N 20:44:27 71° E 20:50:11 12° SSE
X-37B 1.0 20:42:49 10° W 20:45:27 37° SSW 20:47:01 19° SE
ATLAS 5 CENTAUR R/B 3.2 20:48:00 11° ESE 20:48:00 11° ESE 20:49:09 10° E
CZ-2C R/B 4.0 20:43:33 10° NNE 20:47:58 48° E 20:51:58 12° S
SPOT 5 2.6 20:49:45 13° SSE 20:53:40 83° WSW 20:58:01 10° NNW
Cosmos 1703 3.6 20:52:23 10° SSW 20:56:12 66° W 21:00:03 10° N
Cosmos 2084 Rocket 3.3 20:53:15 10° NW 20:57:09 80° NE 21:00:03 18° SE
RESURS DK-1 3.3 20:54:04 10° NW 20:57:59 41° WSW 21:01:19 13° S
Cosmos 1452 Rocket 4.2 20:54:08 10° SW 20:59:19 59° WNW 21:04:32 10° NNE
Cosmos 1833 Rocket 2.7 20:53:54 10° SSW 20:59:31 88° WNW 21:05:11 10° NNE
Terra 1.8 20:56:28 16° SSE 21:00:20 79° ENE 21:05:07 10° NNW
CZ-4B R/B 3.9 20:59:33 10° NNW 21:01:40 18° WNW 21:03:45 10° WSW
ASTEX 1 4.3 20:58:53 10° NNE 21:03:24 32° E 21:06:20 18° SE
Helios 1A Rocket 3.1 21:01:06 15° S 21:04:28 68° WSW 21:08:34 10° NNW
Cosmos 967 Rocket 4.5 20:58:01 10° SSW 21:04:29 81° ESE 21:10:58 10° NE
Cosmos 1110 Rocket 4.2 20:59:58 10° SSW 21:05:15 79° WNW 21:10:36 10° NNE
FALCON 9 DEB 4.2 21:03:23 10° WNW 21:06:30 41° NNE 21:09:38 10° E
ERS-1 Rocket 3.1 21:02:33 14° S 21:06:54 74° WSW 21:11:57 10° NNW
Cosmos 1892 Rocket 3.9 21:04:14 18° SSE 21:07:14 47° E 21:11:27 10° NNE
Resurs 01 Rocket 4.1 21:04:52 10° SW 21:07:48 17° W 21:10:45 10° NW
Cosmos 1302 Rocket 4.2 21:03:51 12° S 21:08:33 52° ESE 21:13:36 10° NNE
Cosmos 2322 Rocket 4.2 21:04:46 10° N 21:08:54 20° NE 21:13:03 10° E
Cosmos 2228 3.6 21:07:30 10° NNW 21:11:39 53° W 21:15:15 13° S
Cosmos 2058 Rocket 3.6 21:08:23 10° N 21:12:40 46° ENE 21:15:19 21° SE
Cosmos 1825 3.7 21:15:03 18° ESE 21:16:09 20° E 21:18:57 10° NE
Cosmos 1408 2.9 21:16:14 26° SSE 21:17:43 41° E 21:21:00 10° NNE
Lacrosse 5 4.2 21:16:44 10° W 21:18:19 11° WSW 21:19:54 10° SW
Meteor 1-11 4.4 21:15:39 18° SSE 21:19:45 55° E 21:25:12 10° NNE
Cosmos 2278 4.2 21:14:44 10° NNW 21:20:21 53° ENE 21:24:23 19° SE
Cosmos 968 Rocket 3.5 21:17:56 10° NNW 21:23:11 85° ENE 21:26:36 22° SSE
Cosmos 1328 4.0 21:22:06 14° SSW 21:25:28 73° W 21:29:27 10° N
Cosmos 2218 Rocket 4.5 21:20:22 10° N 21:26:37 51° ENE 21:30:50 21° SE
USA 276 2.7 21:25:25 10° WNW 21:28:24 54° N 21:31:00 13° E
SJ 16-02 3.4 21:29:12 10° N 21:32:19 18° NE 21:35:23 10° E
Cosmos 1867 3.6 21:27:35 10° NW 21:33:05 88° SW 21:36:30 24° SE
Cosmos 2082 Rocket 2.2 21:27:37 10° SSW 21:33:18 74° ESE 21:39:01 10° NNE
USA 267 3.5 21:30:29 10° ENE 21:36:41 43° SE 21:42:50 10° SSW
ARIANE 5 R/B 3.0 21:35:43 21° S 21:38:34 59° W 21:42:57 10° NNW
Cosmos 1606 Rocket 4.5 21:36:15 10° NNW 21:40:19 41° W 21:43:24 16° SSW
GP-B 3.1 21:36:51 10° N 21:41:17 68° E 21:43:34 28° SSE
Cosmos 2341 Rocket 4.0 21:36:27 10° N 21:42:48 90° E 21:47:01 22° S
Cosmos 2360 Rocket 4.0 21:40:31 10° N 21:45:01 23° NE 21:49:30 10° E
SAR-Lupe-4 3.6 21:41:53 10° NNE 21:45:26 63° ESE 21:46:46 35° S
CSL-04 DEB 4.5 21:47:38 10° NNE 21:52:01 78° ESE 21:54:21 27° S
Okean 1-7 Rocket 3.6 21:58:40 32° S 22:00:41 69° E 22:05:10 10° NNE
SAR-Lupe-1 4.2 21:58:25 10° N 22:02:00 72° WNW 22:03:39 30° SSW
Cosmos 1892 3.0 22:02:06 27° SSW 22:04:00 61° WNW 22:07:45 10° N
Cosmos 1758 Rocket 4.3 22:08:36 30° SE 22:09:51 37° E 22:13:54 10° NNE
Cosmos 2181 Rocket 4.0 22:07:21 23° S 22:11:27 87° W 22:17:44 10° N
USA 234 3.6 22:05:06 10° ESE 22:11:36 68° NNE 22:18:07 10° NW
Cosmos 1633 2.9 22:12:09 40° ESE 22:12:35 42° E 22:15:54 10° NNE
Cosmos 1980 Rocket 3.1 22:12:48 10° NW 22:18:00 37° WSW 22:20:52 22° SSW
Cosmos 1821 Rocket 4.2 22:11:58 10° N 22:18:08 60° ENE 22:21:23 28° SSE
SL-16 R/B 2.4 22:12:37 10° NNW 22:18:18 68° ENE 22:21:23 27° SE
Cosmos 1992 Rocket 4.0 22:15:18 23° SSW 22:18:37 88° WNW 22:23:54 10° NNE
Cosmos 1486 Rocket 4.0 22:13:29 10° NNW 22:18:42 73° WSW 22:21:05 33° S
Cosmos 1812 Rocket 3.7 22:16:04 10° N 22:20:32 67° E 22:22:08 38° SSE
Cosmos 1932 4.5 22:14:27 10° SW 22:20:41 83° NW 22:27:05 10° NE
SL-4 R/B 4.0 22:23:23 13° E 22:23:23 13° E 22:23:52 10° E
Cosmos 2219 Rocket 4.3 22:17:48 10° N 22:22:04 21° NE 22:26:19 10° E
Cosmos-2242 3.1 22:25:39 10° N 22:29:53 65° ENE 22:31:12 41° SE
ATLAS 5 CENTAUR R/B 1.4 22:29:23 24° SW 22:31:33 74° NW 22:35:46 10° NE
Cosmos 1602 Rocket 3.4 22:32:11 41° S 22:33:40 87° E 22:38:01 10° N
Cosmos 1869 3.9 22:30:13 10° NNW 22:33:58 46° W 22:35:09 34° SW
Cosmos 807 4.1 22:31:15 10° NNW 22:34:18 63° W 22:34:24 62° WSW
ERS-2 3.5 22:34:40 10° NE 22:37:37 24° E 22:37:40 24° E
Terra 4.2 22:36:19 10° WSW 22:38:40 14° W 22:41:02 10° WNW
Nadezhda 3 Rocket 4.1 22:36:22 32° SSE 22:39:17 64° E 22:45:23 10° NNE
ALOS 2 2.6 22:39:49 41° SSE 22:41:17 75° ENE 22:45:41 10° N
FALCON 9 DEB 3.6 22:39:39 10° WNW 22:42:17 42° WSW 22:42:17 42° WSW
Cosmos 1354 Rocket 4.0 22:41:38 10° NNW 22:46:58 84° WSW 22:49:06 37° SSE
BREEZE-M DEB (TANK) 3.9 22:45:31 10° WNW 22:48:56 87° NNE 23:02:59 10° ESE
ADEOS Rocket 3.5 22:45:43 29° SSE 22:49:57 87° ENE 22:57:46 10° NNW
Cosmos 1825 3.6 22:49:40 22° WSW 22:51:18 31° WNW 22:54:40 10° N
Cosmos 2322 Rocket 2.2 22:48:04 10° NNW 22:53:47 88° ENE 22:56:23 34° SSE
Cosmos 1503 Rocket 4.2 22:51:29 10° NNW 22:56:42 58° WSW 22:58:35 37° SSW
Cosmos 1953 Rocket 4.1 22:58:43 38° SE 22:59:48 46° E 23:04:02 10° NNE
USA 276 3.5 23:01:12 10° WNW 23:02:49 27° W 23:02:49 27° W
Cosmos 1777 Rocket 3.9 22:59:28 10° NNW 23:04:47 89° W 23:06:53 38° SSE
Cosmos 2333 Rocket 2.9 23:03:24 10° NNW 23:09:02 51° NE 23:12:52 20° SE
Cosmos 1825 Rocket 3.4 23:08:18 49° S 23:09:27 88° E 23:13:49 10° N
CENTAUR R/B 4.1 23:09:34 15° ESE 23:10:58 16° ESE 23:14:48 10° ENE
SJ 16-02 1.5 23:06:54 10° NNW 23:11:17 60° WSW 23:12:19 45° SSW
Gbstr 26 Del rocket 3.2 23:11:09 48° S 23:11:44 51° SE 23:16:42 10° ENE
COSMOS 2487 4.4 23:14:00 16° E 23:14:00 16° E 23:15:22 10° ENE
Cosmos 1340 Rocket 2.8 23:13:04 54° SE 23:13:41 64° E 23:17:37 10° NNE
Cosmos 2082 Rocket 4.3 23:13:26 10° W 23:18:00 24° NW 23:22:34 10° N
H-2A R/B 4.0 23:15:19 10° N 23:19:25 53° WNW 23:20:55 34° SW
USA 267 3.5 23:13:25 10° NE 23:19:56 72° NNW 23:26:27 10° WSW
Celestis-02/Orion 38 4.5 23:19:53 35° SSE 23:22:06 90° NE 23:27:12 10° NNW
Cosmos 2221 2.7 23:22:40 10° N 23:27:01 66° E 23:28:17 43° SE
Cosmos 2058 3.1 23:26:08 44° SW 23:27:16 63° W 23:31:27 10° N
Cosmos 1606 3.5 23:24:04 10° NNW 23:27:40 37° W 23:28:16 35° WSW
Cosmos 2360 Rocket 2.1 23:23:58 10° NNW 23:29:39 76° WSW 23:32:00 37° SSE
Cosmos 1842 Rocket 4.1 23:25:18 10° N 23:29:42 53° ENE 23:31:14 35° SE
Cosmos 1934 Rocket 3.9 23:24:14 10° N 23:30:19 80° W 23:33:06 35° S
Nimbus 7 Rocket 4.4 23:28:00 10° NNE 23:33:57 75° ESE 23:36:36 35° S
Cosmos 2333 4.3 23:28:24 10° NNW 23:34:13 77° ENE 23:37:21 28° SE
Resurs 1-4 Rocket 4.4 23:32:46 10° ENE 23:35:08 13° E 23:37:28 10° ESE
Cosmos 1782 4.1 23:32:12 10° N 23:35:50 33° ENE 23:37:13 26° ESE
Cosmos 1833 4.1 23:39:57 37° SSW 23:42:17 81° ESE 23:47:54 10° NNE
NOSS 8 (A) 4.2 23:42:23 74° W 23:42:35 79° NW 23:45:33 10° NE
Cosmos 44 3.0 23:41:21 46° SSW 23:42:37 74° SE 23:47:06 10° NE
CZ-2D R/B 4.3 23:41:03 10° NE 23:43:50 14° E 23:46:38 10° ESE
Cosmos 2237 Rocket 4.1 23:49:19 10° N 23:54:04 26° NE 23:58:46 10° ESE
